Lid_Strength_Index
3 5 3 5 9 10 11 11 9 9 9 9 9 10 10 9 8 9 2 1 0 0 -1 -1 -1 -1 -1 -1 -1 -1 -1 -1 -1 -1 -1 -1 -1 -1 -1 -1 -1 -1 -1 -1 -1 -1 -1 -1 -1
3 4 4 7 11 12 11 11 10 9 10 9 9 10 10 9 3 3 3 1 0 0 -1 -1 -1 -1 -1 -1 -1 -1 -1 -1 -1 -1 -1 -1 -1 -1 -1 -1 -1 -1 -1 -1 -1 -1 -1 -1 -1
4 3 6 8 11 12 11 11 10 10 9 10 10 9 10 7 3 2 1 0 -0 0 -1 -1 -1 -1 -1 -1 -1 -1 -1 -1 -1 -1 -1 -1 -1 -1 -1 -1 -1 -1 -1 -1 -1 -1 -1 -1 -1
4 4 6 10 12 12 11 10 10 10 9 9 9 10 8 2 2 1 0 0 0 0 -1 -1 -1 -1 -1 -1 -1 -1 -1 -1 -1 -1 -1 -1 -1 -1 -1 -1 -1 -1 -1 -1 -1 -1 -1 -1 -1
5 6 10 11 11 10 10 9 9 10 9 9 9 10 8 2 2 0 1 0 1 0 -0 -1 -1 -1 -1 -1 -1 -1 -1 -1 -1 -1 -1 -1 -1 -1 -1 -1 -1 -1 -1 -1 -1 -1 -1 -1 -1
7 7 11 12 12 11 9 8 9 8 9 9 9 9 8 2 6 5 0 0 0 0 -0 -1 -1 -1 -1 -1 -1 -1 -1 -1 -1 -1 -1 -1 -1 -1 -1 -1 -1 -1 -1 -1 -1 -1 -1 -2 -2
8 9 12 12 12 10 9 7 8 9 9 9 8 9 7 6 6 5 0 0 0 -0 -0 -0 -1 -1 -1 -1 -1 -1 -1 -1 -1 -1 -1 -1 -1 -1 -1 -1 -1 -1 -1 -1 -1 -1 -2 -2 -2
7 8 11 11 12 11 8 8 7 8 8 6 7 9 9 7 6 1 1 1 0 0 -0 -0 -1 -1 -1 -1 -1 -1 -1 -1 -1 -1 -1 -1 -1 -1 -1 -0 -1 -1 -1 -1 -1 -1 -2 -1 -1
7 9 11 11 11 10 8 9 7 6 7 7 6 7 6 6 6 2 2 2 1 1 0 -0 -0 -0 -1 -1 -1 -1 -1 -1 -1 -1 -1 -1 -1 -1 -1 -1 -1 -1 -1 -1 -1 -1 -1 -1 -1
8 10 11 9 9 10 9 9 8 9 8 8 7 5 5 5 6 6 3 3 3 2 1 0 -0 -0 -1 -1 -1 -1 -1 -1 -1 -1 -1 -1 -1 -1 -1 -1 -1 -1 -1 -1 -1 -1 -1 -1 -2
9 10 10 9 9 8 9 9 8 9 10 8 8 7 5 5 5 6 6 2 2 2 1 1 0 -0 -0 -0 -1 -1 -1 -1 -1 -1 -1 -2 -1 -1 -1 -1 -1 -1 -1 -1 -1 -1 -1 -1 -1
12 9 9 9 9 9 10 8 9 9 9 7 7 6 5 5 5 5 5 5 2 2 1 1 0 0 -0 -0 -0 -0 -0 -1 -0 -1 -1 -1 -1 -1 -1 -1 -1 -1 -1 -1 -1 -1 -1 -1 -1
11 10 9 9 9 8 9 10 10 9 8 7 7 6 6 6 5 4 4 3 1 2 1 1 0 0 0 -0 -0 -0 -0 -0 -1 -1 -1 -1 -0 -0 -1 -1 -1 -1 -1 -1 -1 -1 -1 -1 -1
10 10 10 9 9 9 10 10 10 9 8 7 7 7 6 7 5 5 4 4 3 1 1 1 1 0 0 0 -0 -0 -0 -1 -1 -1 -1 -1 -1 -0 -0 -0 -0 -1 -1 -1 -1 -1 -1 -1 -1
10 12 10 10 9 9 9 11 10 7 7 8 7 7 7 7 6 5 4 3 3 2 1 1 1 0 0 0 -0 -0 -0 -0 -0 -0 -1 -1 -1 -1 -1 -0 -0 -0 -1 -1 -1 -1 -1 -1 -1
12 12 13 10 9 9 9 12 8 7 7 7 7 7 7 7 7 5 4 4 3 3 1 1 1 0 0 0 0 0 -0 -0 -0 -1 -1 -1 -1 -1 -1 -0 -0 -1 -1 -1 -0 -0 -0 -0 -1
13 14 13 12 9 9 10 11 8 7 7 7 6 6 7 7 7 5 4 4 4 3 2 1 1 1 1 0 0 0 -0 -0 -0 -1 -1 -1 -1 -1 -1 -0 -0 -1 -1 -0 -0 0 -0 0 0
14 13 12 12 10 10 11 10 8 7 7 7 6 6 6 7 7 5 4 4 3 3 2 0 1 1 1 1 1 0 0 -0 -0 -0 -0 -1 -1 -1 -1 -0 -1 -1 -0 -0 -0 -0 -0 -0 0
12 12 13 11 9 11 10 10 9 7 6 6 5 5 6 6 5 6 3 2 2 2 3 1 1 1 1 1 2 2 2 1 0 -0 -0 -1 -1 -1 -0 -0 -0 -0 0 -0 -0 0 1 1 0
11 12 12 11 10 10 10 10 8 7 6 6 6 6 5 5 4 3 2 2 2 1 2 2 1 1 1 1 1 1 1 1 0 0 -0 -1 -1 -1 -0 -0 0 -0 0 0 0 0 1 1 0
11 12 12 13 11 9 10 10 9 7 6 6 5 5 4 5 5 4 3 3 2 2 2 3 1 1 1 1 1 1 1 1 1 1 1 0 -0 -1 -0 -0 -0 -0 -0 1 0 0 0 2 1
13 11 11 12 12 14 10 14 9 9 8 7 6 5 5 4 4 4 4 3 3 2 1 2 1 1 1 1 2 2 3 3 2 1 1 0 -0 -0 -0 -0 -0 -0 -0 0 0 -0 0 0 2
12 10 11 11 12 12 12 13 10 9 10 9 7 6 5 5 4 4 5 5 4 2 2 2 1 2 1 1 2 2 2 2 1 1 1 1 0 -0 -0 -0 -0 -0 -0 -0 -0 0 0 0 1
9 11 12 13 13 15 13 13 12 11 11 9 7 6 6 6 5 5 4 4 5 2 2 2 1 2 2 2 2 2 2 2 2 2 2 1 1 1 0 -0 -0 -0 -0 0 0 -0 -0 0 0
10 11 16 16 15 15 12 13 11 10 9 8 8 7 7 6 6 6 5 6 6 4 3 3 2 2 2 2 2 2 2 1 2 2 2 2 2 1 1 0 0 0 -0 -0 -0 0 -0 0 1
12 12 16 21 19 16 12 15 11 8 8 7 7 7 7 7 6 6 6 6 6 6 5 3 3 5 2 2 2 1 1 1 1 1 1 1 1 1 0 0 0 0 -0 -0 -0 0 0 0 0
12 13 11 16 14 17 14 12 10 8 9 9 8 7 7 7 7 7 6 6 6 7 5 5 4 7 8 6 1 1 1 1 1 1 1 1 0 0 0 0 0 0 -0 -0 0 1 1 0 0
10 9 15 13 20 20 15 14 14 11 11 10 10 9 8 7 7 6 6 6 6 6 6 6 5 6 8 8 7 1 1 1 1 0 1 1 0 0 0 0 0 0 0 -0 -0 0 0 0 0
11 12 12 13 15 18 18 14 10 11 11 11 11 10 9 8 7 7 6 6 6 6 7 6 6 5 7 8 8 6 2 1 1 1 1 1 0 0 0 0 0 0 0 0 0 0 0 1 1
10 11 12 17 17 15 16 15 9 9 10 10 11 10 10 9 8 7 7 6 6 6 7 7 7 6 5 7 8 7 5 1 1 1 1 0 1 0 0 0 0 1 0 0 1 1 1 1 1